Home   Weather   Opuwo   Past weeks
Flag for Namibia

Past Weather in Opuwo, Namibia — Yesterday and Last 2 Weeks

Now
88 °F

Pleasantly warm.


Feels Like: 84 °F
Forecast: 85 / 54 °F
Wind: 2 mph from Northwest

Location: Ondangwa

Current Time: May 25, 2020 at 5:44:52 pm

Latest Report: May 25, 2020 at 5:00 pm


Visibility: N/A

Pressure: 30.01 "Hg (26.34 "Hg at 1160m altitude)

Humidity: 18%

Dew Point: 39 °F

Location of OpuwoLocation

Past Weather in Opuwo — Graph

°F

Opuwo Temperature Yesterday

Maximum temperature yesterday: 90 °F (at 4:00 pm)
Minimum temperature yesterday: 55 °F (at 6:00 am)
Average temperature yesterday: 71 °F

High & Low Weather Summary for the Past Weeks

 TemperatureHumidityPressure
High91 °F (May 14, 2:00 pm)73% (May 13, 3:00 am)30.27 "Hg (May 13, 3:00 am)
Low54 °F (May 16, 7:00 am)13% (May 16, 5:00 pm)30.01 "Hg (May 25, 3:00 pm)
Average73 °F41%30.14 "Hg
* Reported May 10 3:00 pm — May 25 3:00 pm, Opuwo. Weather by CustomWeather, © 2020

Note: Actual official high and low records may vary slightly from our data, if they occured in-between our weather recording intervals... More about our weather records

Opuwo Weather History for the Previous 24 Hours

Scroll right to see more
 ConditionsComfort  
Time TempWeatherWind HumidityBarometerVisibility
3:00 pm
Mon, May 25
90 °FSunny.6 mph17%30.01 "Hg10 mi
2:00 pm88 °FSunny.3 mph19%30.04 "Hg10 mi
1:00 pm86 °FSunny.6 mph24%30.09 "Hg10 mi
12:00 pm82 °FSunny.5 mph26%30.12 "Hg10 mi
11:00 am77 °FSunny.3 mph32%30.15 "Hg10 mi
10:00 am73 °FSunny.1 mph36%30.15 "Hg10 mi
9:00 am68 °FSunny.2 mph46%30.15 "Hg10 mi
8:00 am61 °FSunny.3 mph55%30.12 "Hg10 mi
7:00 am54 °FCool.3 mph72%30.09 "HgN/A
6:00 am55 °FCool.5 mph72%30.07 "HgN/A
5:00 am57 °FCool.3 mph63%30.07 "HgN/A
4:00 am59 °FRefreshingly cool.5 mph59%30.07 "HgN/A
3:00 am59 °FRefreshingly cool.5 mph59%30.07 "HgN/A
2:00 am61 °FRefreshingly cool.5 mph55%30.09 "HgN/A
1:00 am64 °FMild.2 mph49%30.09 "HgN/A
12:00 am63 °FMild.3 mph56%30.12 "HgN/A
11:00 pm
Sun, May 24
63 °FMild.3 mph56%30.12 "HgN/A
10:00 pm68 °FMild.3 mph40%30.12 "HgN/A
9:00 pm66 °FMild.No wind46%30.09 "HgN/A
8:00 pm72 °FMild.1 mph38%30.09 "HgN/A
7:00 pm73 °FMild.2 mph31%30.07 "HgN/A
6:00 pm84 °FPleasantly warm.2 mph22%30.07 "HgN/A
5:00 pm88 °FPleasantly warm.3 mph18%30.07 "HgN/A
Weather by CustomWeather, © 2020

See weather overview

Advertising